TimeCST,TemperatureF,Dew PointF,Humidity,Sea Level PressureIn,VisibilityMPH,Wind Direction,Wind SpeedMPH,Gust SpeedMPH,PrecipitationIn,Events,Conditions,WindDirDegrees,DateUTC
12:15 AM,26.6,23.0,86,30.19,9.0,Calm,Calm,-,N/A,,Clear,0,2012-11-25 06:15:00
12:35 AM,26.6,23.0,86,30.19,9.0,Calm,Calm,-,N/A,,Clear,0,2012-11-25 06:35:00
12:55 AM,26.6,23.0,86,30.18,10.0,Calm,Calm,-,N/A,,Clear,0,2012-11-25 06:55:00
1:15 AM,24.8,23.0,93,30.18,10.0,Calm,Calm,-,N/A,,Clear,0,2012-11-25 07:15:00
1:35 AM,24.8,23.0,93,30.17,9.0,Calm,Calm,-,N/A,,Clear,0,2012-11-25 07:35:00
1:55 AM,24.8,23.0,93,30.17,9.0,Calm,Calm,-,N/A,,Clear,0,2012-11-25 07:55:00
2:15 AM,24.8,23.0,93,30.17,10.0,Calm,Calm,-,N/A,,Clear,0,2012-11-25 08:15:00
2:35 AM,24.8,23.0,93,30.17,9.0,Calm,Calm,-,N/A,,Clear,0,2012-11-25 08:35:00
2:55 AM,24.8,23.0,93,30.16,8.0,Calm,Calm,-,N/A,,Clear,0,2012-11-25 08:55:00
3:15 AM,24.8,23.0,93,30.16,9.0,Calm,Calm,-,N/A,,Clear,0,2012-11-25 09:15:00
3:35 AM,24.8,23.0,93,30.16,8.0,Calm,Calm,-,N/A,,Clear,0,2012-11-25 09:35:00
3:55 AM,24.8,23.0,93,30.16,9.0,Calm,Calm,-,N/A,,Clear,0,2012-11-25 09:55:00
4:15 AM,24.8,23.0,93,30.16,9.0,Calm,Calm,-,N/A,,Clear,0,2012-11-25 10:15:00
4:35 AM,24.8,23.0,93,30.16,9.0,Calm,Calm,-,N/A,,Clear,0,2012-11-25 10:35:00
4:55 AM,24.8,23.0,93,30.16,9.0,Calm,Calm,-,N/A,,Clear,0,2012-11-25 10:55:00
5:15 AM,24.8,23.0,93,30.17,10.0,Calm,Calm,-,N/A,,Clear,0,2012-11-25 11:15:00
5:35 AM,26.6,24.8,93,30.17,10.0,Calm,Calm,-,N/A,,Clear,0,2012-11-25 11:35:00
5:55 AM,26.6,23.0,86,30.16,10.0,Calm,Calm,-,N/A,,Clear,0,2012-11-25 11:55:00
6:15 AM,28.4,23.0,80,30.16,10.0,Calm,Calm,-,N/A,,Clear,0,2012-11-25 12:15:00
6:35 AM,28.4,23.0,80,30.17,9.0,Calm,Calm,-,N/A,,Clear,0,2012-11-25 12:35:00
6:55 AM,28.4,23.0,80,30.17,9.0,Calm,Calm,-,N/A,,Clear,0,2012-11-25 12:55:00
7:15 AM,30.2,23.0,75,30.17,9.0,Calm,Calm,-,N/A,,Clear,0,2012-11-25 13:15:00
7:35 AM,32.0,23.0,69,30.17,8.0,Calm,Calm,-,N/A,,Clear,0,2012-11-25 13:35:00
7:55 AM,33.8,23.0,65,30.18,9.0,South,3.5,-,N/A,,Clear,180,2012-11-25 13:55:00
8:15 AM,35.6,24.8,65,30.18,8.0,South,3.5,-,N/A,,Clear,170,2012-11-25 14:15:00
8:35 AM,37.4,24.8,60,30.19,9.0,South,3.5,-,N/A,,Clear,180,2012-11-25 14:35:00
8:55 AM,39.2,24.8,56,30.19,9.0,South,3.5,-,N/A,,Clear,190,2012-11-25 14:55:00
9:35 AM,44.6,23.0,43,30.18,9.0,SSW,8.1,-,N/A,,Clear,200,2012-11-25 15:35:00
9:55 AM,46.4,24.8,43,30.18,9.0,SSW,8.1,-,N/A,,Clear,210,2012-11-25 15:55:00
10:15 AM,48.2,24.8,40,30.17,9.0,SSW,10.4,-,N/A,,Clear,210,2012-11-25 16:15:00
10:35 AM,48.2,23.0,37,30.16,9.0,SW,9.2,-,N/A,,Clear,220,2012-11-25 16:35:00
10:55 AM,50.0,23.0,35,30.16,9.0,WSW,5.8,-,N/A,,Clear,240,2012-11-25 16:55:00
11:15 AM,50.0,23.0,35,30.15,9.0,SW,9.2,-,N/A,,Clear,220,2012-11-25 17:15:00
11:55 AM,53.6,23.0,30,30.12,9.0,South,3.5,-,N/A,,Clear,180,2012-11-25 17:55:00
12:15 PM,53.6,24.8,33,30.11,9.0,SSW,5.8,-,N/A,,Clear,200,2012-11-25 18:15:00
12:35 PM,55.4,24.8,31,30.09,8.0,SSW,5.8,-,N/A,,Clear,200,2012-11-25 18:35:00
12:55 PM,55.4,23.0,29,30.09,9.0,SSW,6.9,-,N/A,,Clear,210,2012-11-25 18:55:00
1:15 PM,57.2,24.8,29,30.08,10.0,SW,9.2,-,N/A,,Clear,220,2012-11-25 19:15:00
1:35 PM,57.2,23.0,27,30.08,9.0,SW,9.2,-,N/A,,Clear,220,2012-11-25 19:35:00
1:55 PM,57.2,23.0,27,30.08,7.0,SSW,6.9,-,N/A,,Clear,210,2012-11-25 19:55:00
2:15 PM,57.2,23.0,27,30.07,9.0,SW,5.8,-,N/A,,Clear,230,2012-11-25 20:15:00
2:35 PM,57.2,23.0,27,30.06,9.0,WSW,9.2,-,N/A,,Clear,240,2012-11-25 20:35:00
3:15 PM,57.2,24.8,29,30.06,9.0,South,3.5,-,N/A,,Clear,180,2012-11-25 21:15:00
3:55 PM,57.2,26.6,31,30.06,9.0,SSW,5.8,-,N/A,,Clear,200,2012-11-25 21:55:00
4:15 PM,55.4,26.6,33,30.06,9.0,South,3.5,-,N/A,,Clear,180,2012-11-25 22:15:00
4:35 PM,55.4,24.8,31,30.06,5.0,South,4.6,-,N/A,,Haze,190,2012-11-25 22:35:00
4:55 PM,53.6,24.8,33,30.05,9.0,South,5.8,-,N/A,,Clear,190,2012-11-25 22:55:00
5:15 PM,51.8,24.8,35,30.06,10.0,Calm,Calm,-,N/A,,Clear,0,2012-11-25 23:15:00
5:35 PM,48.2,26.6,43,30.05,10.0,Calm,Calm,-,N/A,,Clear,0,2012-11-25 23:35:00
5:55 PM,46.4,26.6,46,30.05,10.0,Calm,Calm,-,N/A,,Clear,0,2012-11-25 23:55:00
6:15 PM,44.6,26.6,49,30.06,10.0,Calm,Calm,-,N/A,,Clear,0,2012-11-26 00:15:00
6:55 PM,41.0,28.4,61,30.06,10.0,Calm,Calm,-,N/A,,Clear,0,2012-11-26 00:55:00
7:15 PM,41.0,28.4,61,30.06,10.0,South,3.5,-,N/A,,Clear,180,2012-11-26 01:15:00
7:35 PM,41.0,28.4,61,30.07,10.0,Calm,Calm,-,N/A,,Clear,0,2012-11-26 01:35:00
7:55 PM,39.2,30.2,70,30.06,10.0,South,3.5,-,N/A,,Clear,170,2012-11-26 01:55:00
8:15 PM,44.6,28.4,53,30.06,10.0,South,3.5,-,N/A,,Clear,180,2012-11-26 02:15:00
8:35 PM,48.2,26.6,43,30.06,10.0,South,3.5,-,N/A,,Clear,170,2012-11-26 02:35:00
8:55 PM,48.2,26.6,43,30.06,10.0,South,5.8,-,N/A,,Clear,170,2012-11-26 02:55:00
9:15 PM,48.2,24.8,40,30.06,10.0,South,4.6,-,N/A,,Clear,180,2012-11-26 03:15:00
9:35 PM,48.2,24.8,40,30.06,10.0,South,4.6,-,N/A,,Clear,170,2012-11-26 03:35:00
9:55 PM,48.2,26.6,43,30.06,10.0,South,3.5,-,N/A,,Clear,180,2012-11-26 03:55:00
10:15 PM,48.2,26.6,43,30.07,10.0,South,3.5,-,N/A,,Clear,180,2012-11-26 04:15:00
10:35 PM,48.2,26.6,43,30.07,10.0,Calm,Calm,-,N/A,,Clear,0,2012-11-26 04:35:00
10:55 PM,48.2,26.6,43,30.07,10.0,South,3.5,-,N/A,,Clear,190,2012-11-26 04:55:00
11:15 PM,48.2,26.6,43,30.08,10.0,South,4.6,-,N/A,,Clear,190,2012-11-26 05:15:00
11:35 PM,46.4,28.4,50,30.08,10.0,Calm,Calm,-,N/A,,Clear,0,2012-11-26 05:35:00
11:55 PM,46.4,28.4,50,30.08,10.0,South,3.5,-,N/A,,Clear,190,2012-11-26 05:55:00